Location: Howell Woods
(35.3600°N, 78.2900°W)
Time: 17:51:21
(UTC-05:00)

ISS - Pass Details

Date: 06 December 2021
Orbit: 413 x 422 km, 51.6° (Epoch: 28 January)

Event Time Altitude Azimuth Distance (km) Brightness Sun altitude
Rises 18:03:54 0° 319° (NW) 2,381 0.4 -12.7°
Reaches altitude 10° 18:06:08 10° 328° (NNW) 1,511 -0.8 -13.2°
Maximum altitude 18:09:17 36° 37° (NE) 691 -3.1 -13.8°
Enters shadow 18:10:24 27° 78° (ENE) 837 -2.8 -14.0°
